#timestamp,LO_Frequency,Hit,StdDev 
1458212415.9,286046992.9,N
1458212435.7,286046990.7,N
1458212455.5,286046990.9,N
1458212475.4,286046990.4,N
1458212495.2,286046987.9,Y
1458212515.0,286046988.6,P
1458212515.9,286046988.6,P
1458212535.8,286046994.2,N
1458212555.6,286046994.2,N
1458212575.4,286046995.7,N
1458212595.3,286046994.7,N
1458212615.1,286046994.3,N
1458212616.0,286046994.3,N
1458212635.8,286046992.2,N
1458212655.7,286046991.7,Y
1458212675.5,286047000.7,P
1458212695.3,286047000.0,N
1458212715.2,286047002.5,N
1458212735.9,286047001.7,N
1458212755.7,286047006.3,N
1458212775.6,286047004.6,N
1458212795.4,286047008.6,N
1458212815.2,286047004.9,N
1458212835.1,286047005.7,N
1458212836.0,286047005.7,N
1458212855.8,286047005.5,N
1458212875.6,286047004.5,N
1458212895.4,286047006.1,N
1458212915.3,286047008.2,N
1458212935.1,286047008.9,N
1458212955.8,286047011.6,Y
1458212975.7,286047007.5,P
1458212995.5,286047003.1,N
1458213015.3,286047001.6,N
1458213035.2,286047001.9,N
1458213055.9,286047000.3,N
1458213075.7,286047003.8,N
1458213095.6,286047007.6,Y
1458213115.4,286047003.9,P
1458213135.2,286047000.2,N
1458213155.1,286047001.4,N
1458213156.0,286047001.4,N
1458213175.8,286046998.3,N
1458213195.6,286046998.3,N
1458213215.5,286046997.0,N
1458213235.3,286046997.1,N
1458213255.1,286046997.4,N
1458213275.9,286046995.2,N
1458213295.7,286046992.3,N
1458213315.5,286046992.9,N
1458213335.4,286046991.0,N
1458213355.2,286046991.6,N
1458213375.0,286046992.2,N
1458213375.9,286046992.2,N
1458213395.7,286046994.3,N
1458213415.6,286046992.4,N
1458213435.4,286046992.4,N
1458213455.2,286046991.8,N
1458213475.1,286046993.2,N
1458213476.0,286046993.2,N
1458213495.8,286046990.4,N
1458213515.6,286046990.5,N
1458213535.5,286046991.7,N
1458213555.3,286046993.3,N
1458213575.1,286046996.4,N
1458213595.9,286046996.0,N
1458213615.7,286046993.6,N
1458213635.5,286046997.9,N
1458213655.3,286046999.5,N
1458213675.2,286046995.8,N
1458213695.0,286046990.1,Y
1458213695.9,286046990.1,P
1458213715.8,286046995.0,N
1458213735.6,286046997.0,N
1458213755.4,286046998.2,N
1458213775.2,286046997.7,N
1458213795.1,286046998.2,N
1458213796.0,286046998.2,N
1458213815.8,286046999.5,N
1458213835.6,286046999.9,N
1458213855.5,286047000.7,N
1458213875.3,286047000.6,N
1458213895.1,286047000.5,N
1458213915.9,286047002.4,N
1458213935.7,286047000.8,N
1458213955.5,286046998.6,N
1458213975.4,286047001.2,N
1458213995.2,286046998.3,N
1458214015.0,286046998.6,N
1458214015.9,286046998.6,N
1458214035.8,286047000.3,N
1458214055.6,286046999.9,N
1458214075.4,286047002.5,N
1458214095.2,286047006.0,N
1458214115.1,286047005.2,N
1458214116.0,286047005.2,N
1458214135.8,286047005.6,N
1458214155.6,286047004.1,N
1458214175.5,286047003.8,N
1458214195.3,286047004.4,N
1458214215.1,286047000.5,N
1458214235.9,286047000.8,N
1458214255.7,286047000.3,N
1458214275.5,286047001.4,N
1458214295.4,286047002.8,N
1458214315.2,286047003.2,N
1458214335.0,286047002.9,N
1458214335.9,286047002.9,N
1458214355.8,286047004.1,N
1458214375.6,286047003.5,N
1458214395.4,286047005.2,N
1458214415.3,286047009.2,Y
1458214435.1,286047003.6,P
1458214436.0,286047003.6,P
1458214455.8,286047001.3,N
1458214475.7,286047004.2,Y
1458214495.5,286047000.6,P
1458214515.3,286046997.5,N
1458214535.2,286046995.4,N
1458214555.9,286046995.8,N
1458214575.7,286046995.5,N
1458214595.6,286046996.2,N
1458214615.4,286046997.4,N
1458214635.2,286046995.8,N
1458214655.0,286046997.9,N
1458214656.0,286046997.9,N
1458214675.8,286046995.6,N
1458214695.6,286046995.0,N
1458214715.4,286046998.9,N
1458214735.3,286046998.8,N
1458214755.1,286046997.3,N
1458214775.8,286046991.9,Y
1458214795.7,286046999.6,P
1458214815.5,286046996.9,N
1458214835.3,286046997.0,N
1458214855.2,286046998.8,N
1458214875.9,286046998.8,N
1458214895.7,286047000.4,N
1458214915.6,286046998.3,N
1458214935.4,286046999.6,N
1458214955.2,286046995.6,Y
1458214975.1,286046998.5,P
1458214976.0,286046998.5,P
1458214995.8,286047004.2,P
1458215015.6,286047005.3,N
1458215035.5,286047003.2,N
1458215055.3,286047003.8,N
1458215075.1,286047006.0,N
1458215095.9,286047006.0,N
1458215115.7,286047003.9,N
1458215135.5,286047003.3,N
1458215155.3,286047003.0,N
1458215175.2,286047002.0,N
1458215195.0,286046999.8,N
1458215195.9,286046999.8,N
1458215215.7,286046998.1,N
1458215235.6,286047000.1,N
1458215255.4,286046998.6,N
1458215275.2,286046998.2,N
1458215295.1,286047000.7,N
1458215296.0,286047000.7,N
1458215315.8,286047003.3,N
1458215335.6,286047005.2,N
1458215355.5,286047006.4,N
1458215375.3,286047005.2,N
1458215395.1,286047007.9,N
1458215415.9,286047010.8,Y
1458215435.7,286047006.8,P
1458215455.5,286047005.3,N
1458215475.3,286047008.8,P
1458215495.2,286047010.2,Y
1458215515.0,286047003.3,P
1458215515.9,286047003.3,N
1458215535.8,286047003.9,P
1458215555.6,286046998.3,N
1458215575.4,286046999.0,N
1458215595.2,286046995.7,N
1458215615.1,286046992.1,N
1458215616.0,286046992.1,N
1458215635.8,286046993.2,N
1458215655.6,286046992.7,N
1458215675.5,286046989.4,N
1458215695.3,286046985.3,N
1458215715.1,286046986.4,N
1458215735.9,286046989.3,N
1458215755.7,286046987.0,N
1458215775.5,286046983.7,N
1458215795.4,286046983.2,N
1458215815.2,286046980.9,N
1458215835.0,286046979.1,N
1458215835.9,286046979.1,N
1458215855.8,286046980.1,N
1458215875.6,286046979.3,N
1458215895.4,286046986.4,N
1458215915.2,286046984.2,N
1458215935.1,286046984.3,N
1458215936.0,286046984.3,N
1458215955.8,286046984.0,N
1458215975.6,286046984.3,N
1458215995.5,286046980.6,N
